Wind_Speed
2 1 2 2 1 2 2 1 0 1 1 1 2 2 2 3 3 4 3 3 3 3 3 3 3 5 5 4 5 6 6 6 6 6 6 7 7 8 8 8 8 8 9
3 2 2 2 1 1 1 0 0 0 0 1 2 2 3 3 3 3 3 3 3 4 3 3 3 4 4 4 5 6 6 6 6 6 6 7 7 8 8 9 9 9 10
3 2 2 1 1 1 0 0 0 0 1 2 2 2 3 3 3 3 4 4 4 3 4 4 4 4 5 5 6 6 6 6 7 7 7 7 7 8 9 9 10 11 11
4 3 2 1 1 1 2 2 1 1 1 2 2 2 3 4 4 4 4 4 4 5 5 5 5 5 5 6 6 6 6 7 7 7 8 8 9 9 10 11 12 12 12
4 3 3 2 2 1 2 2 2 1 1 2 3 3 3 3 3 3 3 3 4 4 5 6 6 6 6 6 7 8 8 8 8 8 8 8 9 10 11 12 12 13 14
4 3 3 2 2 2 2 2 1 1 2 3 3 3 2 2 2 3 3 4 4 5 5 5 6 6 7 8 8 8 8 9 8 8 9 10 10 11 11 12 13 14 15
3 3 2 2 2 3 2 2 1 1 2 3 4 3 3 2 2 2 3 4 4 5 5 6 6 7 8 8 8 8 9 9 9 9 10 10 11 11 12 13 14 14 14
3 2 2 2 3 2 2 2 1 1 2 3 3 3 3 3 3 2 2 3 3 4 4 5 6 7 7 8 8 9 9 8 8 9 9 10 11 12 12 13 13 13 14
2 2 1 2 2 1 2 2 2 2 3 4 4 3 3 3 2 2 2 2 3 3 4 5 5 6 6 7 7 7 8 8 8 8 9 9 10 11 12 12 13 14 14
2 2 2 2 2 1 1 2 2 3 3 3 4 4 4 3 3 3 3 3 3 4 5 6 6 7 6 7 7 7 8 9 9 9 10 10 11 12 12 13 13 14 15
1 1 1 1 1 1 2 2 3 3 4 4 4 4 4 3 4 3 3 3 3 5 5 6 7 7 7 8 7 8 8 8 9 11 11 12 12 12 13 13 14 15 16
1 1 2 2 2 3 2 3 4 4 4 4 4 4 4 4 4 4 4 4 4 6 6 7 7 7 8 8 8 8 9 9 10 11 12 13 14 14 14 15 15 16 17
1 3 4 4 4 4 4 4 4 4 5 5 4 4 5 5 4 4 4 5 6 6 7 7 8 8 8 9 9 10 10 11 12 13 13 14 14 15 15 16 16 17 17
4 5 5 5 6 5 5 5 4 5 5 5 5 5 6 6 6 5 5 5 6 7 7 8 8 9 9 9 10 11 12 12 13 13 14 14 15 15 16 16 16 17 18
5 6 6 6 6 6 5 5 5 6 6 6 6 6 7 7 7 6 5 6 6 7 8 9 9 9 9 10 10 11 12 13 13 14 14 14 15 15 16 16 17 18 19
6 6 7 7 6 6 6 6 6 7 7 7 7 7 8 8 8 7 7 8 8 9 9 9 9 10 10 10 11 12 12 13 13 14 15 15 16 16 17 18 19 19 20
7 6 6 6 6 6 7 7 7 8 8 8 8 8 8 8 8 8 8 9 9 10 10 10 11 11 11 12 13 13 14 14 15 15 16 17 17 18 18 19 20 21 21
7 6 6 7 7 8 9 9 9 9 9 9 9 9 9 9 9 9 10 11 11 11 11 12 12 13 13 14 14 15 15 15 16 17 17 17 18 19 20 20 21 22 23
7 6 6 7 8 9 10 10 10 9 9 10 10 10 10 10 11 11 11 12 12 13 13 13 14 14 15 16 16 16 17 17 18 19 19 19 19 20 21 22 22 23 24
8 8 8 9 9 9 10 10 10 10 11 11 12 12 12 12 12 12 13 13 13 14 14 15 15 16 16 17 18 19 19 19 19 20 21 21 22 23 24 24 24 24 25
10 9 9 10 10 10 11 11 11 12 12 13 13 13 14 14 14 14 15 15 15 15 16 16 17 18 18 19 20 21 21 21 21 22 22 23 23 24 25 25 26 26 26
11 11 11 11 11 11 12 13 13 13 14 14 15 15 15 15 16 15 15 16 16 17 17 18 19 19 20 21 21 21 22 22 23 23 24 24 25 26 26 27 27 27 27
13 13 13 13 13 13 13 14 15 15 16 17 16 16 16 17 16 16 16 17 17 18 18 19 20 21 21 22 22 23 23 24 24 24 25 25 25 26 27 28 28 28 28
16 15 14 15 15 15 16 17 17 18 18 18 18 18 18 18 19 18 19 18 18 18 19 20 21 23 23 24 24 23 24 24 24 24 25 25 26 26 27 28 28 29 28
18 17 17 16 17 17 17 18 18 19 19 19 19 20 20 20 20 20 20 20 19 20 21 21 22 23 24 24 24 24 24 25 25 26 26 26 26 26 27 28 28 28 28
19 19 18 17 17 17 18 18 19 19 19 19 19 20 21 21 21 21 21 20 20 20 21 21 22 23 24 24 24 25 25 26 26 26 26 26 27 27 28 29 29 28 28
Wind_Direction
125 131 124 138 175 201 194 181 124 183 197 262 278 267 274 274 270 264 268 271 275 287 297 289 276 272 268 257 259 265 266 256 250 248 249 249 251 255 256 261 267 270 269
100 106 106 122 152 173 194 229 190 96 323 296 276 270 269 281 281 272 269 266 270 281 298 289 274 271 257 264 270 272 269 265 257 255 257 253 254 256 259 264 269 272 274
100 108 114 114 81 105 147 19 289 305 314 285 276 270 265 273 284 282 277 275 271 276 292 288 281 269 260 265 277 277 276 267 261 258 259 261 262 262 264 268 273 275 277
109 116 118 105 67 68 6 3 12 358 314 301 292 285 277 272 277 273 273 274 279 282 285 283 278 276 268 269 277 280 280 269 261 262 264 265 266 269 269 272 274 274 276
108 115 117 100 89 31 21 34 33 18 327 312 304 301 293 278 273 279 271 278 287 290 286 284 281 280 271 273 277 282 279 274 267 267 267 267 267 269 270 274 276 276 275
104 106 107 92 67 54 56 57 62 24 355 347 326 309 302 287 277 292 285 286 290 292 290 288 285 282 275 274 277 279 276 278 272 269 270 271 268 270 272 275 277 278 276
110 106 96 70 63 57 58 43 36 356 339 343 337 325 304 295 296 307 305 303 297 291 290 293 290 287 283 280 282 280 278 277 278 274 273 275 273 273 274 277 278 279 278
103 106 80 76 75 57 48 45 30 19 355 345 349 345 321 298 293 303 309 316 306 300 298 305 300 294 288 288 289 285 283 283 281 280 281 281 279 277 277 279 280 280 280
89 90 82 60 51 23 24 19 5 3 357 347 341 338 325 306 308 303 308 308 302 301 306 311 313 307 297 291 289 287 289 287 287 288 289 289 286 284 285 285 285 286 285
91 79 57 33 7 353 355 351 351 354 343 329 320 321 318 318 321 326 309 304 303 304 311 315 312 317 315 304 299 296 293 292 292 293 294 294 293 290 288 290 291 291 290
53 57 29 7 338 325 332 329 335 331 331 331 323 321 324 325 325 320 322 324 317 319 322 322 316 311 308 305 300 298 297 298 297 297 296 296 295 292 291 292 293 294 293
357 343 309 310 306 304 314 319 321 326 334 335 333 329 326 322 314 309 312 319 319 317 319 319 314 309 306 305 302 299 299 296 300 303 302 300 297 295 294 295 294 294 294
294 289 287 291 298 295 297 307 311 320 326 332 330 322 316 316 312 301 300 304 306 312 314 312 307 304 304 303 303 302 300 300 303 303 302 302 300 298 296 295 294 294 295
294 286 294 297 292 285 286 293 295 302 312 317 317 315 313 312 312 308 306 308 307 306 308 312 311 310 307 305 302 303 299 298 301 304 303 303 304 303 301 300 299 298 298
302 300 296 295 290 290 287 288 293 302 305 307 309 308 305 305 309 304 303 307 308 309 309 310 316 313 311 311 309 309 308 305 305 304 303 305 305 305 305 304 303 302 302
296 297 289 285 288 289 287 287 292 298 299 300 301 300 301 304 304 304 301 302 302 303 307 309 310 313 312 310 311 313 312 310 310 307 306 305 305 306 305 304 304 304 303
288 284 284 286 290 291 289 287 288 291 296 297 295 295 297 302 303 301 297 300 303 303 303 305 305 306 308 310 310 310 310 308 306 306 307 305 304 305 305 305 304 303 302
285 280 282 282 286 286 286 287 287 286 291 294 292 291 294 297 298 298 297 297 300 301 301 302 301 302 305 309 310 307 306 305 304 304 305 304 303 303 304 304 303 303 302
291 283 281 281 283 281 284 288 289 289 291 294 291 288 291 294 293 295 295 296 297 298 300 302 301 301 302 304 306 307 306 304 304 303 303 301 301 302 304 304 303 303 302
292 287 285 286 286 283 285 288 290 289 289 293 294 291 290 288 289 291 294 294 297 297 297 300 301 300 300 300 302 305 304 302 305 304 303 303 303 303 304 304 304 303 302
291 291 287 287 286 284 283 285 287 286 288 290 293 294 292 289 289 291 292 293 296 296 295 295 296 298 298 298 301 303 303 305 305 304 303 303 303 303 304 303 303 303 302
288 288 286 286 286 286 285 286 288 290 291 291 292 293 292 290 289 289 289 291 293 293 294 295 295 296 298 298 301 304 304 303 302 302 303 303 303 303 304 304 302 302 301
282 284 285 286 288 286 286 288 291 290 292 292 291 291 293 293 291 289 288 291 291 292 292 293 294 294 295 298 301 301 301 302 302 302 302 303 304 304 305 305 304 304 303
279 281 281 284 286 286 286 287 290 293 293 292 293 293 292 292 292 291 291 293 293 294 295 295 296 294 296 298 299 301 302 302 303 303 302 303 304 305 305 305 305 304 303
278 280 280 280 283 285 286 287 289 292 293 293 294 294 294 293 291 290 290 291 293 294 295 297 297 298 300 301 302 304 305 304 303 303 304 304 304 304 304 305 305 303 302
279 278 278 279 281 284 287 290 293 296 297 296 295 296 295 294 293 291 290 292 294 295 296 298 300 301 301 301 302 303 304 304 304 303 304 305 306 306 305 305 305 304 304
Height
5879 5880 5880 5881 5881 5881 5882 5882 5883 5882 5883 5883 5883 5883 5883 5883 5883 5883 5883 5883 5883 5883 5883 5882 5882 5882 5882 5883 5883 5883 5883 5883 5883 5883 5884 5884 5885 5885 5885 5885 5886 5886 5886
5879 5880 5881 5881 5881 5881 5882 5882 5883 5882 5883 5883 5883 5882 5882 5882 5882 5883 5882 5882 5882 5882 5882 5882 5882 5881 5882 5882 5882 5882 5881 5881 5882 5882 5882 5883 5883 5883 5883 5884 5884 5884 5884
5880 5880 5881 5881 5882 5882 5882 5882 5882 5882 5883 5883 5882 5882 5882 5882 5882 5882 5882 5882 5881 5881 5881 5881 5881 5881 5881 5881 5881 5881 5880 5880 5881 5881 5881 5881 5881 5882 5882 5882 5882 5882 5882
5880 5881 5881 5882 5882 5881 5882 5882 5882 5882 5882 5882 5882 5882 5881 5881 5881 5881 5881 5881 5881 5881 5880 5880 5880 5880 5880 5880 5879 5879 5879 5879 5879 5879 5879 5879 5880 5880 5880 5879 5879 5879 5879
5881 5881 5882 5882 5882 5882 5882 5882 5882 5882 5882 5882 5882 5881 5881 5880 5880 5880 5880 5880 5880 5880 5879 5879 5879 5879 5879 5878 5878 5878 5877 5877 5877 5877 5877 5877 5877 5877 5877 5877 5877 5876 5876
5881 5882 5882 5882 5882 5882 5882 5882 5882 5882 5882 5881 5881 5881 5880 5880 5880 5879 5879 5879 5879 5879 5878 5878 5878 5877 5877 5876 5876 5876 5876 5875 5874 5875 5875 5875 5875 5875 5875 5874 5874 5873 5873
5882 5882 5882 5883 5883 5882 5882 5882 5882 5882 5882 5881 5881 5880 5880 5879 5879 5879 5878 5878 5878 5878 5877 5877 5876 5876 5876 5875 5875 5874 5874 5874 5873 5873 5873 5873 5872 5872 5872 5872 5871 5870 5870
5883 5883 5883 5883 5883 5883 5882 5882 5882 5882 5882 5881 5880 5880 5879 5879 5878 5878 5878 5877 5877 5877 5876 5875 5875 5874 5874 5873 5873 5873 5872 5872 5871 5871 5871 5870 5870 5869 5869 5868 5868 5867 5866
5883 5883 5883 5883 5883 5883 5883 5882 5882 5882 5882 5881 5880 5879 5879 5878 5878 5878 5877 5877 5876 5876 5875 5874 5873 5872 5872 5871 5871 5871 5871 5870 5869 5869 5868 5868 5867 5867 5866 5865 5865 5864 5863
5884 5884 5884 5883 5883 5883 5882 5882 5882 5881 5881 5880 5879 5879 5879 5878 5877 5877 5877 5876 5875 5874 5874 5873 5872 5871 5870 5870 5870 5869 5869 5868 5868 5867 5866 5866 5865 5864 5863 5863 5862 5860 5859
5884 5883 5883 5883 5883 5882 5882 5882 5881 5881 5880 5880 5879 5878 5878 5877 5877 5876 5876 5875 5875 5874 5873 5872 5871 5870 5869 5869 5868 5867 5867 5866 5865 5865 5864 5863 5862 5861 5860 5859 5858 5857 5856
5884 5883 5883 5883 5882 5882 5881 5881 5880 5880 5880 5879 5879 5878 5877 5877 5876 5875 5875 5874 5873 5873 5872 5871 5870 5869 5868 5867 5866 5865 5864 5864 5863 5862 5861 5860 5859 5858 5857 5856 5855 5853 5852
5883 5883 5883 5882 5882 5881 5881 5880 5880 5880 5879 5878 5878 5877 5876 5876 5875 5874 5874 5873 5872 5871 5870 5869 5868 5867 5866 5865 5864 5863 5863 5861 5860 5859 5858 5857 5856 5854 5853 5852 5851 5849 5848
5883 5882 5882 5881 5881 5880 5880 5879 5879 5878 5878 5877 5876 5876 5875 5874 5873 5873 5872 5871 5870 5870 5869 5868 5866 5865 5864 5863 5862 5861 5860 5859 5857 5856 5855 5854 5852 5851 5849 5848 5847 5845 5844
5881 5881 5880 5880 5879 5879 5878 5878 5877 5877 5876 5875 5875 5874 5873 5873 5872 5871 5870 5869 5869 5868 5867 5866 5864 5863 5862 5861 5859 5858 5857 5856 5854 5853 5852 5850 5849 5847 5846 5844 5842 5841 5839
5880 5880 5879 5879 5878 5877 5877 5876 5876 5875 5875 5874 5873 5872 5872 5871 5870 5869 5869 5868 5867 5866 5865 5863 5862 5861 5860 5858 5857 5855 5854 5852 5851 5850 5848 5847 5845 5843 5841 5840 5838 5836 5834
5879 5878 5878 5877 5877 5876 5876 5875 5874 5874 5873 5872 5871 5870 5870 5869 5868 5867 5866 5865 5864 5863 5862 5861 5860 5858 5857 5856 5854 5853 5851 5849 5848 5846 5844 5843 5841 5839 5837 5835 5833 5831 5829
5877 5876 5876 5876 5875 5874 5874 5873 5872 5872 5871 5870 5869 5868 5867 5867 5866 5865 5864 5863 5862 5861 5860 5858 5857 5856 5854 5853 5851 5849 5848 5846 5844 5842 5840 5838 5836 5834 5832 5830 5828 5826 5823
5875 5874 5874 5873 5873 5872 5872 5871 5870 5869 5869 5868 5867 5866 5865 5864 5863 5862 5861 5860 5859 5858 5857 5855 5854 5852 5851 5850 5848 5846 5844 5842 5840 5838 5836 5834 5832 5829 5827 5825 5823 5820 5818
5873 5872 5872 5871 5871 5870 5869 5868 5868 5867 5866 5865 5864 5863 5862 5861 5860 5859 5858 5857 5855 5854 5853 5852 5850 5848 5847 5845 5844 5842 5839 5837 5835 5833 5831 5829 5826 5824 5822 5819 5816 5814 5811
5871 5870 5869 5869 5868 5867 5866 5865 5865 5864 5863 5862 5861 5859 5858 5857 5856 5855 5854 5853 5851 5850 5849 5848 5846 5844 5842 5841 5839 5837 5834 5832 5830 5828 5825 5823 5820 5818 5815 5812 5810 5807 5804
5868 5867 5867 5866 5865 5864 5863 5862 5861 5860 5859 5858 5857 5856 5854 5853 5852 5851 5850 5848 5847 5846 5845 5843 5841 5839 5838 5836 5834 5831 5829 5827 5825 5823 5820 5817 5814 5811 5808 5806 5803 5800 5797
5865 5864 5863 5862 5861 5860 5859 5858 5857 5856 5855 5854 5852 5851 5850 5849 5847 5846 5845 5843 5842 5840 5839 5838 5836 5834 5832 5830 5828 5825 5823 5820 5818 5816 5814 5811 5807 5805 5802 5798 5795 5792 5789
5861 5860 5859 5858 5857 5856 5855 5854 5852 5851 5851 5849 5848 5846 5845 5844 5842 5841 5839 5838 5837 5835 5834 5832 5831 5829 5827 5824 5822 5820 5817 5815 5812 5809 5807 5804 5801 5798 5795 5791 5788 5785 5782
5856 5855 5854 5854 5853 5852 5851 5849 5848 5847 5845 5844 5843 5841 5840 5838 5837 5835 5834 5833 5831 5830 5828 5826 5825 5823 5820 5818 5816 5814 5811 5809 5806 5803 5800 5797 5794 5791 5788 5785 5781 5778 5774
5851 5850 5849 5849 5848 5847 5846 5845 5843 5842 5841 5839 5837 5836 5834 5833 5831 5829 5828 5827 5826 5824 5822 5820 5819 5816 5814 5812 5810 5808 5805 5802 5799 5797 5793 5790 5787 5784 5782 5778 5774 5770 5767